QPF
0.00 0.01 0.02 0.05 0.05 0.04 0.03 0.03 0.02 0.02 0.02 0.02 0.02 0.02 0.01 0.01 0.01 0.01 0.01 0.00 0.00 0.01 0.01 0.01 0.01 0.01 0.00 0.00 0.00 0.00 0.01 0.01 0.01 0.01 0.01 0.01 0.01 0.01 0.01 0.01 0.01 0.01 0.01
0.00 0.01 0.02 0.05 0.06 0.06 0.04 0.03 0.02 0.02 0.02 0.02 0.02 0.02 0.02 0.01 0.01 0.01 0.01 0.01 0.01 0.00 0.01 0.01 0.01 0.01 0.00 0.00 0.00 0.00 0.00 0.00 0.00 0.00 0.00 0.00 0.00 0.01 0.01 0.00 0.00 0.01 0.01
0.01 0.01 0.02 0.04 0.06 0.06 0.04 0.03 0.03 0.02 0.02 0.02 0.02 0.02 0.02 0.02 0.01 0.01 0.01 0.01 0.01 0.01 0.01 0.01 0.01 0.01 0.01 0.00 0.00 0.00 0.00 0.00 0.00 0.00 0.00 0.00 0.00 0.01 0.01 0.00 0.00 0.00 0.01
0.01 0.02 0.02 0.04 0.05 0.04 0.04 0.04 0.03 0.03 0.02 0.03 0.02 0.02 0.02 0.02 0.02 0.01 0.01 0.02 0.02 0.02 0.02 0.01 0.01 0.01 0.01 0.01 0.00 0.00 0.00 0.00 0.00 0.00 0.00 0.00 0.01 0.01 0.01 0.00 0.01 0.01 0.01
0.01 0.02 0.04 0.04 0.04 0.04 0.04 0.03 0.04 0.03 0.04 0.04 0.03 0.03 0.02 0.02 0.02 0.02 0.02 0.02 0.01 0.01 0.01 0.01 0.01 0.01 0.01 0.01 0.01 0.00 0.00 0.00 0.00 0.00 0.00 0.00 0.00 0.01 0.01 0.01 0.01 0.00 0.01
0.01 0.02 0.04 0.03 0.03 0.03 0.04 0.04 0.04 0.04 0.03 0.03 0.04 0.05 0.03 0.02 0.02 0.02 0.02 0.02 0.01 0.01 0.01 0.01 0.00 0.00 0.01 0.01 0.01 0.00 0.00 0.00 0.00 0.00 0.00 0.00 0.00 0.01 0.01 0.01 0.00 0.00 0.00
0.02 0.02 0.03 0.05 0.05 0.04 0.03 0.04 0.05 0.06 0.06 0.06 0.04 0.05 0.06 0.04 0.03 0.03 0.02 0.02 0.01 0.01 0.01 0.01 0.00 0.00 0.01 0.01 0.01 0.01 0.00 0.00 0.00 0.00 0.00 0.00 0.00 0.00 0.00 0.00 0.00 0.00 0.00
0.02 0.02 0.04 0.05 0.06 0.05 0.04 0.03 0.04 0.04 0.05 0.06 0.07 0.06 0.06 0.05 0.05 0.04 0.03 0.02 0.02 0.01 0.01 0.01 0.01 0.01 0.01 0.01 0.02 0.02 0.01 0.00 0.00 0.00 0.00 0.00 0.00 0.00 0.00 0.00 0.01 0.00 0.00
0.02 0.02 0.04 0.05 0.05 0.05 0.04 0.04 0.03 0.03 0.04 0.04 0.04 0.05 0.05 0.04 0.04 0.04 0.03 0.03 0.03 0.02 0.02 0.01 0.01 0.01 0.01 0.01 0.01 0.02 0.02 0.01 0.01 0.00 0.00 0.00 0.00 0.00 0.00 0.00 0.00 0.00 0.00
0.02 0.02 0.03 0.05 0.05 0.04 0.05 0.04 0.04 0.04 0.03 0.04 0.03 0.02 0.02 0.02 0.02 0.03 0.03 0.02 0.03 0.03 0.02 0.02 0.02 0.02 0.01 0.01 0.01 0.01 0.01 0.01 0.01 0.01 0.01 0.01 0.00 0.00 0.00 0.00 0.00 0.00 0.00
0.01 0.02 0.03 0.04 0.04 0.04 0.05 0.04 0.05 0.05 0.05 0.05 0.04 0.02 0.02 0.04 0.03 0.02 0.01 0.01 0.02 0.03 0.03 0.02 0.02 0.02 0.01 0.01 0.00 0.00 0.00 0.01 0.00 0.01 0.00 0.01 0.01 0.01 0.01 0.01 0.00 0.00 0.00
0.01 0.01 0.01 0.02 0.03 0.04 0.03 0.05 0.06 0.05 0.05 0.06 0.07 0.06 0.05 0.05 0.03 0.02 0.01 0.01 0.01 0.02 0.03 0.03 0.02 0.02 0.01 0.02 0.01 0.00 0.00 0.00 0.01 0.00 0.00 0.00 0.00 0.00 0.01 0.01 0.01 0.00 0.00
0.00 0.00 0.01 0.01 0.01 0.02 0.03 0.03 0.04 0.05 0.05 0.05 0.06 0.07 0.08 0.07 0.05 0.03 0.03 0.01 0.02 0.02 0.03 0.04 0.04 0.03 0.02 0.02 0.02 0.01 0.00 0.00 0.00 0.00 0.00 0.00 0.00 0.00 0.00 0.01 0.01 0.01 0.01
0.00 0.00 0.00 0.00 0.01 0.01 0.02 0.04 0.04 0.05 0.06 0.05 0.05 0.05 0.06 0.08 0.07 0.05 0.03 0.03 0.03 0.03 0.03 0.04 0.05 0.04 0.02 0.01 0.01 0.01 0.01 0.01 0.00 0.00 0.00 0.00 0.00 0.00 0.01 0.01 0.01 0.01 0.01
0.00 0.00 0.00 0.00 0.00 0.01 0.02 0.04 0.04 0.04 0.05 0.06 0.05 0.04 0.04 0.05 0.06 0.06 0.05 0.04 0.05 0.04 0.03 0.03 0.03 0.03 0.02 0.02 0.01 0.01 0.01 0.01 0.01 0.00 0.00 0.00 0.00 0.00 0.00 0.01 0.01 0.01 0.01
0.00 0.00 0.00 0.00 0.00 0.00 0.01 0.01 0.04 0.04 0.03 0.05 0.05 0.04 0.04 0.04 0.04 0.04 0.05 0.04 0.05 0.04 0.03 0.02 0.03 0.02 0.02 0.01 0.01 0.01 0.01 0.01 0.01 0.01 0.00 0.00 0.00 0.00 0.00 0.01 0.01 0.01 0.02
0.00 0.00 0.00 0.00 0.00 0.00 0.00 0.01 0.02 0.04 0.04 0.04 0.04 0.05 0.04 0.04 0.03 0.03 0.03 0.03 0.03 0.05 0.04 0.03 0.03 0.03 0.02 0.01 0.01 0.01 0.01 0.01 0.01 0.01 0.01 0.00 0.00 0.00 0.00 0.01 0.01 0.01 0.01
0.00 0.00 0.00 0.00 0.00 0.00 0.00 0.00 0.01 0.03 0.04 0.05 0.05 0.05 0.05 0.05 0.04 0.03 0.02 0.02 0.02 0.04 0.06 0.04 0.03 0.03 0.03 0.02 0.02 0.02 0.01 0.01 0.01 0.01 0.01 0.01 0.00 0.00 0.00 0.00 0.00 0.01 0.01
0.00 0.00 0.00 0.00 0.00 0.00 0.00 0.00 0.00 0.01 0.02 0.04 0.04 0.04 0.04 0.05 0.05 0.03 0.02 0.02 0.03 0.03 0.03 0.05 0.05 0.04 0.04 0.03 0.03 0.02 0.02 0.01 0.01 0.01 0.01 0.01 0.01 0.00 0.00 0.00 0.00 0.01 0.01
0.00 0.00 0.00 0.00 0.00 0.00 0.00 0.00 0.00 0.00 0.00 0.01 0.01 0.02 0.02 0.03 0.04 0.05 0.04 0.04 0.03 0.03 0.04 0.04 0.06 0.07 0.07 0.06 0.06 0.04 0.03 0.03 0.02 0.01 0.01 0.01 0.01 0.01 0.01 0.01 0.01 0.01 0.01
0.00 0.00 0.00 0.00 0.00 0.00 0.00 0.00 0.00 0.00 0.00 0.00 0.00 0.00 0.01 0.01 0.02 0.03 0.04 0.04 0.03 0.03 0.03 0.04 0.06 0.09 0.10 0.09 0.08 0.06 0.04 0.03 0.02 0.02 0.02 0.02 0.02 0.02 0.02 0.01 0.01 0.01 0.01
0.00 0.00 0.00 0.00 0.00 0.00 0.00 0.00 0.00 0.00 0.00 0.00 0.00 0.00 0.00 0.00 0.01 0.02 0.03 0.03 0.04 0.04 0.03 0.04 0.05 0.07 0.10 0.11 0.11 0.09 0.08 0.05 0.03 0.02 0.02 0.03 0.03 0.03 0.03 0.03 0.03 0.02 0.02
0.00 0.00 0.00 0.00 0.00 0.00 0.00 0.00 0.00 0.00 0.00 0.00 0.00 0.00 0.00 0.00 0.00 0.01 0.01 0.02 0.02 0.03 0.03 0.03 0.04 0.06 0.08 0.12 0.13 0.12 0.11 0.08 0.06 0.04 0.04 0.03 0.03 0.03 0.03 0.03 0.03 0.04 0.04
0.00 0.00 0.00 0.00 0.00 0.00 0.00 0.00 0.00 0.00 0.00 0.00 0.00 0.00 0.00 0.00 0.00 0.01 0.01 0.01 0.01 0.02 0.02 0.03 0.03 0.05 0.06 0.09 0.13 0.14 0.13 0.10 0.08 0.07 0.05 0.05 0.04 0.04 0.03 0.03 0.04 0.05 0.05
0.00 0.00 0.00 0.00 0.00 0.00 0.00 0.00 0.00 0.00 0.00 0.00 0.00 0.00 0.00 0.01 0.01 0.01 0.01 0.01 0.01 0.01 0.02 0.02 0.03 0.04 0.05 0.06 0.09 0.12 0.12 0.11 0.09 0.08 0.07 0.06 0.06 0.06 0.06 0.06 0.06 0.07 0.07
0.00 0.00 0.00 0.00 0.00 0.00 0.00 0.00 0.00 0.00 0.00 0.00 0.00 0.00 0.01 0.01 0.01 0.01 0.01 0.01 0.01 0.01 0.01 0.01 0.02 0.03 0.04 0.05 0.07 0.08 0.11 0.12 0.12 0.12 0.12 0.10 0.09 0.10 0.10 0.10 0.10 0.10 0.09
MSLP
1016.20 1015.87 1015.63 1015.54 1015.60 1015.79 1016.03 1016.27 1016.43 1016.51 1016.48 1016.40 1016.32 1016.28 1016.30 1016.39 1016.52 1016.66 1016.76 1016.79 1016.76 1016.68 1016.60 1016.53 1016.53 1016.58 1016.69 1016.80 1016.89 1016.92 1016.88 1016.77 1016.63 1016.48 1016.36 1016.30 1016.30 1016.34 1016.39 1016.44 1016.43 1016.39 1016.30
1016.40 1016.04 1015.77 1015.65 1015.70 1015.87 1016.11 1016.35 1016.52 1016.60 1016.59 1016.52 1016.44 1016.41 1016.43 1016.52 1016.65 1016.77 1016.86 1016.88 1016.84 1016.76 1016.68 1016.63 1016.65 1016.73 1016.86 1017.00 1017.10 1017.14 1017.09 1016.98 1016.83 1016.68 1016.56 1016.51 1016.51 1016.56 1016.62 1016.66 1016.66 1016.60 1016.49
1016.61 1016.22 1015.92 1015.77 1015.78 1015.93 1016.15 1016.38 1016.56 1016.65 1016.66 1016.62 1016.57 1016.54 1016.58 1016.67 1016.79 1016.90 1016.97 1016.98 1016.93 1016.84 1016.77 1016.73 1016.76 1016.86 1017.01 1017.15 1017.26 1017.30 1017.25 1017.14 1016.98 1016.83 1016.72 1016.67 1016.69 1016.75 1016.83 1016.87 1016.86 1016.80 1016.68
1016.84 1016.43 1016.10 1015.91 1015.89 1016.00 1016.19 1016.40 1016.57 1016.68 1016.71 1016.69 1016.67 1016.67 1016.72 1016.81 1016.92 1017.01 1017.07 1017.06 1017.01 1016.93 1016.86 1016.84 1016.88 1016.99 1017.14 1017.29 1017.39 1017.42 1017.37 1017.24 1017.08 1016.93 1016.83 1016.80 1016.84 1016.92 1017.00 1017.06 1017.06 1017.00 1016.88
1017.09 1016.66 1016.31 1016.10 1016.04 1016.11 1016.26 1016.44 1016.59 1016.69 1016.73 1016.73 1016.73 1016.74 1016.80 1016.89 1017.00 1017.09 1017.13 1017.13 1017.07 1017.00 1016.95 1016.95 1017.01 1017.12 1017.27 1017.41 1017.50 1017.51 1017.44 1017.31 1017.14 1017.00 1016.91 1016.90 1016.95 1017.05 1017.15 1017.23 1017.24 1017.20 1017.10
1017.34 1016.93 1016.58 1016.36 1016.27 1016.30 1016.41 1016.54 1016.65 1016.72 1016.74 1016.74 1016.73 1016.75 1016.81 1016.90 1017.00 1017.09 1017.13 1017.13 1017.09 1017.05 1017.02 1017.04 1017.11 1017.24 1017.38 1017.51 1017.58 1017.57 1017.49 1017.34 1017.18 1017.04 1016.96 1016.96 1017.03 1017.14 1017.27 1017.36 1017.40 1017.38 1017.31
1017.61 1017.24 1016.92 1016.70 1016.60 1016.59 1016.64 1016.71 1016.76 1016.77 1016.75 1016.71 1016.69 1016.69 1016.74 1016.82 1016.91 1016.99 1017.04 1017.06 1017.05 1017.03 1017.04 1017.09 1017.18 1017.32 1017.46 1017.57 1017.62 1017.59 1017.49 1017.34 1017.17 1017.04 1016.97 1016.98 1017.07 1017.20 1017.34 1017.45 1017.52 1017.53 1017.50
1017.89 1017.58 1017.31 1017.12 1017.01 1016.97 1016.96 1016.95 1016.92 1016.85 1016.77 1016.68 1016.61 1016.58 1016.59 1016.65 1016.73 1016.81 1016.86 1016.90 1016.91 1016.93 1016.98 1017.05 1017.17 1017.32 1017.45 1017.56 1017.60 1017.56 1017.45 1017.29 1017.13 1017.01 1016.95 1016.97 1017.06 1017.20 1017.36 1017.49 1017.57 1017.61 1017.61
1018.19 1017.95 1017.74 1017.58 1017.48 1017.40 1017.33 1017.24 1017.11 1016.96 1016.79 1016.63 1016.50 1016.42 1016.40 1016.43 1016.48 1016.54 1016.60 1016.65 1016.68 1016.73 1016.80 1016.91 1017.05 1017.20 1017.34 1017.44 1017.47 1017.43 1017.32 1017.18 1017.03 1016.92 1016.88 1016.91 1017.01 1017.16 1017.31 1017.45 1017.55 1017.61 1017.63
1018.48 1018.31 1018.17 1018.04 1017.93 1017.82 1017.69 1017.52 1017.31 1017.07 1016.82 1016.59 1016.40 1016.27 1016.20 1016.19 1016.21 1016.25 1016.29 1016.33 1016.37 1016.43 1016.52 1016.64 1016.79 1016.95 1017.09 1017.19 1017.23 1017.20 1017.11 1016.98 1016.86 1016.77 1016.75 1016.80 1016.91 1017.05 1017.21 1017.34 1017.44 1017.50 1017.54
1018.77 1018.65 1018.55 1018.45 1018.33 1018.19 1018.00 1017.76 1017.48 1017.17 1016.85 1016.56 1016.31 1016.13 1016.02 1015.96 1015.94 1015.95 1015.96 1015.98 1016.01 1016.05 1016.14 1016.25 1016.40 1016.56 1016.70 1016.81 1016.86 1016.85 1016.78 1016.69 1016.61 1016.56 1016.56 1016.63 1016.75 1016.90 1017.05 1017.17 1017.26 1017.32 1017.34
1019.02 1018.94 1018.86 1018.76 1018.63 1018.45 1018.21 1017.92 1017.57 1017.21 1016.85 1016.51 1016.24 1016.02 1015.87 1015.77 1015.71 1015.68 1015.65 1015.62 1015.62 1015.63 1015.69 1015.78 1015.91 1016.05 1016.19 1016.30 1016.37 1016.38 1016.35 1016.30 1016.26 1016.25 1016.29 1016.39 1016.52 1016.68 1016.82 1016.94 1017.02 1017.06 1017.07
1019.25 1019.17 1019.08 1018.97 1018.80 1018.59 1018.30 1017.97 1017.59 1017.19 1016.81 1016.46 1016.17 1015.93 1015.76 1015.63 1015.53 1015.45 1015.37 1015.29 1015.24 1015.20 1015.21 1015.26 1015.36 1015.47 1015.60 1015.70 1015.78 1015.82 1015.83 1015.82 1015.82 1015.86 1015.94 1016.06 1016.22 1016.39 1016.54 1016.65 1016.72 1016.75 1016.75
1019.43 1019.33 1019.22 1019.07 1018.86 1018.61 1018.29 1017.92 1017.52 1017.11 1016.73 1016.38 1016.09 1015.86 1015.67 1015.52 1015.39 1015.26 1015.13 1015.00 1014.88 1014.79 1014.74 1014.74 1014.78 1014.86 1014.96 1015.06 1015.14 1015.19 1015.23 1015.26 1015.30 1015.37 1015.49 1015.65 1015.82 1016.01 1016.17 1016.29 1016.37 1016.40 1016.40
1019.57 1019.44 1019.28 1019.09 1018.84 1018.54 1018.19 1017.80 1017.39 1016.99 1016.61 1016.28 1016.00 1015.77 1015.59 1015.43 1015.27 1015.11 1014.93 1014.75 1014.57 1014.41 1014.30 1014.24 1014.23 1014.27 1014.33 1014.41 1014.47 1014.53 1014.58 1014.63 1014.70 1014.80 1014.94 1015.12 1015.32 1015.52 1015.71 1015.85 1015.95 1015.99 1016.00
1019.66 1019.49 1019.30 1019.06 1018.78 1018.44 1018.07 1017.66 1017.25 1016.85 1016.48 1016.16 1015.89 1015.67 1015.49 1015.32 1015.14 1014.95 1014.74 1014.52 1014.29 1014.09 1013.92 1013.80 1013.74 1013.72 1013.75 1013.79 1013.84 1013.88 1013.93 1013.98 1014.05 1014.15 1014.30 1014.48 1014.69 1014.91 1015.12 1015.29 1015.42 1015.50 1015.54
1019.70 1019.52 1019.30 1019.03 1018.72 1018.36 1017.97 1017.55 1017.13 1016.73 1016.36 1016.04 1015.77 1015.55 1015.36 1015.17 1014.99 1014.78 1014.55 1014.29 1014.04 1013.79 1013.58 1013.42 1013.31 1013.25 1013.23 1013.24 1013.25 1013.27 1013.29 1013.32 1013.37 1013.45 1013.58 1013.75 1013.96 1014.18 1014.40 1014.61 1014.77 1014.90 1014.99
1019.69 1019.51 1019.29 1019.01 1018.69 1018.33 1017.92 1017.50 1017.07 1016.66 1016.28 1015.94 1015.66 1015.42 1015.20 1015.01 1014.80 1014.58 1014.33 1014.07 1013.79 1013.53 1013.29 1013.09 1012.95 1012.85 1012.80 1012.76 1012.74 1012.73 1012.71 1012.69 1012.70 1012.74 1012.82 1012.95 1013.13 1013.34 1013.57 1013.79 1013.99 1014.17 1014.31
1019.64 1019.48 1019.28 1019.01 1018.71 1018.35 1017.95 1017.52 1017.09 1016.66 1016.25 1015.89 1015.57 1015.29 1015.05 1014.82 1014.60 1014.36 1014.10 1013.83 1013.55 1013.28 1013.02 1012.81 1012.64 1012.52 1012.43 1012.36 1012.30 1012.24 1012.18 1012.11 1012.06 1012.03 1012.05 1012.13 1012.26 1012.44 1012.65 1012.88 1013.10 1013.31 1013.50
1019.53 1019.42 1019.25 1019.03 1018.75 1018.42 1018.04 1017.62 1017.17 1016.73 1016.29 1015.89 1015.52 1015.19 1014.90 1014.64 1014.39 1014.13 1013.87 1013.59 1013.31 1013.03 1012.77 1012.55 1012.36 1012.22 1012.10 1012.01 1011.92 1011.81 1011.70 1011.58 1011.46 1011.37 1011.32 1011.32 1011.39 1011.52 1011.70 1011.92 1012.15 1012.38 1012.60
1019.37 1019.32 1019.20 1019.03 1018.80 1018.50 1018.15 1017.75 1017.32 1016.86 1016.39 1015.95 1015.53 1015.15 1014.81 1014.49 1014.20 1013.92 1013.64 1013.35 1013.06 1012.77 1012.51 1012.28 1012.08 1011.92 1011.78 1011.66 1011.54 1011.41 1011.25 1011.08 1010.90 1010.74 1010.62 1010.55 1010.56 1010.64 1010.78 1010.97 1011.20 1011.44 1011.68
1019.18 1019.18 1019.12 1019.01 1018.82 1018.58 1018.27 1017.91 1017.49 1017.03 1016.55 1016.07 1015.61 1015.17 1014.77 1014.41 1014.07 1013.74 1013.43 1013.12 1012.81 1012.51 1012.23 1011.98 1011.76 1011.58 1011.42 1011.28 1011.13 1010.97 1010.78 1010.57 1010.35 1010.14 1009.96 1009.84 1009.80 1009.83 1009.94 1010.11 1010.33 1010.57 1010.82
1018.97 1019.02 1019.01 1018.94 1018.81 1018.62 1018.37 1018.05 1017.66 1017.22 1016.75 1016.25 1015.75 1015.27 1014.81 1014.39 1013.99 1013.62 1013.25 1012.90 1012.56 1012.22 1011.91 1011.63 1011.38 1011.17 1010.98 1010.81 1010.64 1010.45 1010.24 1010.01 1009.77 1009.53 1009.32 1009.18 1009.10 1009.12 1009.22 1009.39 1009.61 1009.86 1010.13
1018.76 1018.83 1018.86 1018.83 1018.75 1018.62 1018.42 1018.16 1017.83 1017.43 1016.97 1016.47 1015.95 1015.44 1014.93 1014.45 1013.98 1013.54 1013.12 1012.71 1012.30 1011.92 1011.55 1011.22 1010.92 1010.66 1010.43 1010.23 1010.02 1009.82 1009.59 1009.35 1009.10 1008.87 1008.67 1008.53 1008.48 1008.51 1008.64 1008.83 1009.09 1009.37 1009.67
1018.55 1018.64 1018.68 1018.69 1018.65 1018.57 1018.44 1018.24 1017.97 1017.62 1017.20 1016.72 1016.19 1015.65 1015.10 1014.56 1014.03 1013.52 1013.02 1012.53 1012.06 1011.60 1011.17 1010.76 1010.40 1010.08 1009.79 1009.53 1009.29 1009.06 1008.82 1008.58 1008.35 1008.14 1007.98 1007.90 1007.90 1007.99 1008.18 1008.45 1008.77 1009.12 1009.47
1018.34 1018.43 1018.49 1018.51 1018.51 1018.48 1018.41 1018.28 1018.08 1017.79 1017.42 1016.96 1016.44 1015.88 1015.29 1014.70 1014.10 1013.52 1012.95 1012.38 1011.83 1011.30 1010.78 1010.30 1009.86 1009.46 1009.10 1008.78 1008.49 1008.23 1007.97 1007.74 1007.53 1007.37 1007.28 1007.27 1007.36 1007.56 1007.85 1008.22 1008.65 1009.09 1009.52
Thickness
5747 5748 5745 5745 5745 5745 5744 5744 5744 5744 5743 5742 5742 5741 5740 5739 5738 5737 5737 5736 5736 5735 5735 5734 5734 5733 5732 5732 5731 5731 5730 5730 5730 5729 5729 5729 5729 5729 5729 5729 5731 5731 5729
5744 5745 5742 5742 5742 5742 5741 5741 5741 5741 5740 5740 5739 5738 5737 5737 5736 5735 5734 5734 5733 5733 5732 5732 5731 5730 5730 5729 5728 5727 5727 5726 5726 5726 5726 5726 5725 5725 5725 5725 5726 5727 5725
5741 5741 5739 5739 5739 5738 5738 5738 5738 5737 5737 5737 5736 5736 5735 5734 5733 5733 5732 5732 5731 5730 5730 5729 5728 5727 5726 5726 5725 5724 5723 5723 5722 5723 5724 5726 5724 5722 5722 5721 5722 5721 5721
5735 5736 5736 5734 5735 5734 5734 5734 5734 5734 5733 5733 5733 5733 5732 5731 5731 5730 5730 5729 5728 5728 5727 5726 5725 5724 5723 5722 5722 5721 5720 5719 5719 5720 5723 5723 5722 5719 5718 5718 5718 5717 5717
5730 5731 5730 5729 5730 5730 5730 5730 5730 5730 5730 5730 5729 5729 5729 5728 5728 5727 5727 5726 5726 5725 5724 5723 5722 5721 5720 5719 5718 5718 5717 5716 5716 5718 5719 5719 5718 5715 5715 5714 5714 5714 5713
5724 5725 5724 5724 5725 5725 5726 5726 5726 5726 5726 5726 5726 5726 5726 5725 5725 5724 5724 5723 5723 5722 5721 5720 5719 5718 5717 5716 5715 5714 5713 5713 5714 5716 5716 5716 5715 5712 5711 5710 5710 5710 5709
5718 5718 5718 5718 5719 5720 5720 5721 5721 5722 5722 5722 5722 5722 5722 5722 5721 5721 5720 5720 5719 5719 5718 5717 5716 5715 5714 5713 5712 5711 5710 5710 5712 5713 5712 5712 5710 5708 5708 5707 5706 5706 5705
5711 5712 5713 5712 5713 5714 5715 5715 5716 5716 5717 5717 5717 5718 5718 5718 5717 5717 5717 5716 5716 5715 5714 5714 5713 5712 5711 5710 5709 5708 5707 5706 5708 5709 5709 5708 5706 5704 5704 5703 5702 5702 5701
5704 5705 5706 5707 5707 5708 5709 5710 5710 5711 5711 5712 5712 5713 5713 5713 5713 5713 5713 5712 5712 5712 5711 5710 5709 5709 5708 5707 5705 5704 5704 5703 5706 5706 5705 5705 5702 5701 5700 5700 5699 5698 5698
5696 5698 5699 5701 5702 5703 5704 5704 5705 5705 5706 5707 5707 5708 5708 5708 5709 5709 5709 5708 5708 5707 5707 5706 5705 5705 5704 5703 5702 5701 5700 5700 5702 5703 5702 5701 5698 5697 5697 5696 5695 5695 5694
5688 5690 5692 5694 5695 5697 5698 5698 5699 5700 5701 5702 5702 5703 5703 5705 5705 5705 5705 5704 5703 5703 5703 5702 5701 5701 5700 5700 5698 5697 5696 5699 5701 5700 5699 5697 5695 5694 5693 5693 5692 5691 5690
5680 5682 5684 5686 5688 5690 5691 5693 5694 5695 5696 5697 5698 5698 5699 5700 5700 5700 5700 5699 5699 5699 5698 5698 5697 5696 5696 5698 5696 5694 5695 5696 5697 5697 5696 5693 5691 5690 5689 5689 5688 5687 5686
5672 5673 5675 5678 5680 5682 5684 5686 5688 5689 5690 5692 5693 5693 5693 5694 5694 5695 5695 5695 5695 5694 5695 5694 5694 5694 5694 5695 5694 5693 5694 5694 5694 5693 5692 5689 5687 5686 5685 5685 5684 5683 5682
5664 5666 5668 5670 5672 5674 5677 5679 5681 5683 5684 5685 5686 5687 5687 5688 5688 5689 5690 5691 5690 5691 5691 5691 5691 5691 5691 5691 5690 5690 5690 5690 5690 5689 5688 5685 5683 5682 5681 5681 5680 5679 5677
5657 5659 5661 5663 5665 5667 5669 5672 5674 5676 5677 5678 5679 5680 5681 5682 5683 5683 5684 5684 5685 5685 5685 5686 5686 5686 5686 5686 5686 5686 5686 5686 5685 5684 5684 5681 5679 5677 5677 5676 5676 5674 5673
5649 5651 5653 5655 5657 5660 5663 5665 5667 5669 5670 5671 5672 5673 5674 5674 5675 5677 5677 5678 5678 5678 5679 5679 5680 5680 5680 5680 5680 5680 5680 5681 5680 5679 5679 5677 5674 5673 5672 5671 5671 5670 5669
5641 5644 5646 5648 5650 5652 5655 5657 5660 5661 5663 5664 5665 5666 5667 5667 5668 5669 5670 5671 5671 5671 5672 5672 5673 5673 5673 5673 5673 5673 5673 5674 5674 5674 5673 5672 5671 5669 5667 5666 5665 5665 5664
5635 5636 5638 5640 5642 5645 5647 5649 5652 5653 5655 5657 5658 5659 5660 5660 5661 5661 5662 5663 5663 5664 5664 5665 5665 5665 5665 5666 5666 5667 5667 5667 5667 5668 5668 5667 5666 5665 5663 5661 5659 5659 5658
5627 5629 5631 5633 5635 5637 5639 5641 5643 5645 5646 5648 5649 5650 5651 5652 5652 5653 5654 5655 5655 5656 5656 5656 5657 5657 5657 5657 5658 5659 5659 5660 5660 5660 5661 5661 5660 5659 5658 5657 5654 5652 5652
5620 5622 5623 5625 5627 5629 5632 5634 5635 5637 5638 5639 5640 5641 5642 5643 5644 5645 5646 5646 5647 5647 5647 5647 5647 5648 5648 5648 5648 5649 5651 5652 5652 5653 5653 5653 5653 5652 5651 5651 5649 5648 5646
5613 5615 5616 5617 5619 5621 5623 5625 5627 5628 5629 5629 5630 5630 5631 5633 5634 5635 5636 5637 5637 5638 5639 5639 5638 5638 5639 5638 5637 5638 5642 5644 5645 5645 5645 5645 5646 5645 5644 5643 5643 5642 5641
5606 5607 5608 5609 5611 5612 5613 5614 5615 5616 5618 5619 5619 5620 5621 5622 5623 5625 5626 5627 5628 5629 5629 5629 5628 5628 5629 5628 5627 5626 5629 5633 5637 5638 5637 5637 5638 5638 5637 5636 5635 5635 5634
5600 5600 5601 5602 5602 5603 5604 5605 5606 5607 5608 5609 5610 5610 5611 5612 5613 5614 5615 5616 5617 5618 5618 5619 5618 5617 5617 5616 5616 5615 5617 5623 5626 5629 5629 5629 5629 5629 5629 5628 5627 5626 5625
5594 5593 5593 5594 5595 5596 5596 5597 5598 5599 5601 5601 5600 5601 5601 5602 5603 5604 5605 5606 5607 5607 5607 5608 5607 5606 5606 5606 5606 5606 5608 5611 5611 5615 5618 5619 5619 5619 5619 5618 5617 5616 5615
5587 5586 5586 5587 5588 5588 5589 5590 5590 5591 5592 5591 5591 5592 5592 5593 5594 5594 5595 5596 5597 5597 5597 5597 5597 5596 5596 5596 5596 5596 5597 5598 5601 5603 5607 5608 5607 5608 5607 5606 5606 5605 5604
5581 5579 5579 5581 5581 5581 5582 5582 5583 5583 5583 5583 5583 5584 5585 5585 5585 5585 5585 5587 5587 5587 5587 5587 5587 5587 5587 5587 5587 5587 5587 5588 5591 5592 5595 5597 5597 5595 5594 5594 5593 5593 5592